MACSAT 2 (M 2) 1 20608U 90043B 09006.65402010 .00000144 00000-0 18439-4 0 5900 2 20608 089.7418 087.2163 0096492 116.6375 244.4782 14.71940705999591 TUBSAT A 1 21577U 91050D 09006.04492326 -.00000018 00000-0 83603-5 0 3744 2 21577 098.4465 315.3933 0006323 165.3075 194.8309 14.38520254916899 S80/T 1 22078U 92052C 09005.52981374 -.00000037 +00000-0 +10000-3 0 06509 2 22078 066.0870 301.0175 0011582 320.6643 039.3533 12.86722993770814 HEALTHSAT 1 1 22827U 93061E 09006.56769263 .00000151 00000-0 74570-4 0 1579 2 22827 098.4041 327.1720 0008999 359.0187 001.0988 14.30145313797126 TUBSAT B 1 22970U 94003B 09006.30732650 .00000051 00000-0 10000-3 0 9661 2 22970 082.5608 263.8867 0015324 297.0251 062.9230 13.16913115718674 CERISE 1 23606U 95033B 09006.35275301 .00000598 00000-0 77278-4 0 6677 2 23606 098.2263 121.6297 0005316 270.8861 089.1744 14.84788267727851 UPM/LBSAT 1 23607U 95033C 09007.00768242 .00000116 00000-0 25248-4 0 09 2 23607 098.2011 090.8967 0006979 055.0942 305.0922 14.74718801725293 FAISAT 2V 1 24954U 97052B 09006.76555948 .00000053 00000-0 36148-4 0 3977 2 24954 082.9216 076.2837 0038056 223.0385 136.7796 13.79642226568417 MUBLCOM 1 25736U 99026B 09006.01642367 .00000147 00000-0 53446-4 0 6336 2 25736 097.7543 311.2372 0004980 188.0537 172.0576 14.44508594507387 RUBIN 3/SL-8 1 27561U 02054C 09006.59318928 .00000686 00000-0 17171-3 0 5695 2 27561 097.9470 210.2520 0048348 024.9359 335.4164 14.53679527324037 APRIZESAT 2 (LATINSAT D) 1 28366U 04025A 09006.58011502 .00000093 00000-0 44185-4 0 2792 2 28366 098.0819 013.3628 0108457 293.8312 065.1536 14.35561010237046 SAUDICOMSAT 1 1 28369U 04025D 09006.03880306 .00000056 00000-0 24962-4 0 2960 2 28369 098.0431 051.6861 0034516 190.8496 169.1943 14.50619057239441 SAUDICOMSAT 2 1 28370U 04025E 09007.04845420 -.00000053 00000-0 -29222-5 0 3035 2 28370 098.0414 039.1191 0058444 218.3083 141.3955 14.45719441238788 APRIZESAT 1 (LATINSAT C) 1 28372U 04025G 09006.55309616 .00000048 00000-0 24120-4 0 2957 2 28372 098.0389 045.0464 0047023 204.1828 155.7196 14.48150906239102 NANOSAT(1) 1 28493U 04049B 09004.58280417 -.00000047 00000-0 60190-6 0 2437 2 28493 098.2411 323.8497 0005751 056.9698 303.2056 14.70275446217122 SAUDICOMSAT 7 1 31119U 07012C 09006.29134229 .00000385 00000-0 88724-4 0 5302 2 31119 098.0190 074.2574 0062980 045.7738 314.8569 14.59418704 91887 SAUDICOMSAT 6 1 31121U 07012E 09007.09014307 .00000365 00000-0 89075-4 0 5328 2 31121 098.0160 071.9499 0080232 051.9335 308.9061 14.56295931 91815 SAUDICOMSAT 5 1 31124U 07012H 09006.36572030 .00000399 00000-0 89121-4 0 5332 2 31124 098.0218 075.9957 0054475 041.3644 319.1637 14.60998573 91990 SAUDICOMSAT 3 1 31125U 07012J 09007.13399768 .00000409 00000-0 88749-4 0 5409 2 31125 098.0243 078.3018 0046080 035.0779 325.3429 14.62544025 92200 SAUDICOMSAT 4 1 31127U 07012L 09007.20577831 .00000380 00000-0 89803-4 0 5329 2 31127 098.0172 073.6977 0071528 046.9109 313.7998 14.57937988 91926